Location: Lafig�re
(44.4503°N, 4.0357°E)
Time: 15:31:58
(UTC+00:00)

ARGOS - Pass Details

Date: 28 January 2021
Orbit: 821 x 834 km, 98.4° (Epoch: 05 March)

Event Time Altitude Azimuth Distance (km) Brightness Sun altitude
Rises 18:20:46 0° 153° (SSE) 3,343 6.1 -16.7°
Reaches altitude 10° 18:23:08 10° 150° (SSE) 2,415 5.4 -17.1°
Maximum altitude 18:28:23 59° 71° (ENE) 948 3.1 -18.0°
Drops below altitude 10° 18:33:41 10° 354° (N) 2,440 5.6 -18.9°
Sets 18:36:04 0° 350° (N) 3,379 6.4 -19.4°
